Location: Bretagne
(43.8474°N, 0.4650°W)
Time: 09:49:25
(UTC+00:00)

PSLV R/B - Pass Details

Date: 15 January 2026
Orbit: 560 x 588 km, 98.0° (Epoch: 11 February)

Event Time Altitude Azimuth Distance (km) Brightness Sun altitude
Rises 17:58:30 0° 142° (SE) 2,799 6.7 -12.2°
Reaches altitude 10° 18:00:48 10° 132° (SE) 1,907 5.8 -12.6°
Maximum altitude 18:04:30 32° 69° (ENE) 1,018 4.1 -13.2°
Drops below altitude 10° 18:08:13 10° 6° (N) 1,926 5.9 -13.8°
Sets 18:10:32 0° 357° (N) 2,832 6.8 -14.2°
